Capitol Logistics 3276




MBPV
Providenciales International Airport
Providenciales, TC
MYNN
Lynden Pindling International Airport
Nassau, BS

Activity Log

Date Flight Route Aircraft Duration
03/16/2021 CPX3276 MICAS4 MICAS A555 ZQA AR3 KURAY SF34 1h 44m
04/14/2020 CPX3276 PVN BR2L DUKKY A555 ZQA SF34 2h 25m
10/12/2019 CPX676 PVN BR2L DUKKY A555 ZQA SF34 1h 59m
09/04/2019 CPX676 PVN BR2L DUKKY A555 ZQA SF34 1h 25m
08/23/2019 CPX676 PVN BR2L DUKKY A555 ZQA SF34 1h 31m

Route Details

Aircraft Information
Primary: Saab 340AF
Backup: Not Available
Route Data
Distance: 347nm
Duration: 2h 20m
Recm'd Route: PVN BR2L DUKKY A555 ZQA
Origin Wx: MBPV 012200Z 13010KT 9999 SCT015 30/23 Q1016
Dest. Wx: MYNN 020500Z 18007KT 9999 FEW018CB SCT022 29/24 A3010 RMK CB NE
Notes: